Time,TemperatureF,DewpointF,PressureIn,WindDirection,WindDirectionDegrees,WindSpeedMPH,WindSpeedGustMPH,Humidity,HourlyPrecipIn,Conditions,Clouds,dailyrainin,SoftwareType,DateUTC
2013-06-19 00:01:00,65.0,54.0,30.04,ENE,74,2.0,7.0,68,0.00,,,0.00,,2013-06-19 04:01:00,
2013-06-19 00:11:00,65.0,54.0,30.04,NNE,24,3.0,10.0,68,0.00,,,0.00,,2013-06-19 04:11:00,
2013-06-19 00:22:00,65.0,55.0,30.04,East,84,3.0,10.0,69,0.00,,,0.00,,2013-06-19 04:22:00,
2013-06-19 00:32:00,65.0,55.0,30.04,East,84,3.0,10.0,69,0.00,,,0.00,,2013-06-19 04:32:00,
2013-06-19 00:42:00,65.0,55.0,30.04,East,84,3.0,10.0,69,0.00,,,0.00,,2013-06-19 04:42:00,
2013-06-19 00:53:00,64.0,52.0,30.05,NE,56,7.0,11.0,66,0.00,,,0.00,,2013-06-19 04:53:00,
2013-06-19 01:01:00,64.0,52.0,30.05,East,95,6.0,10.0,65,0.00,,,0.00,,2013-06-19 05:01:00,
2013-06-19 01:11:00,64.0,51.0,30.05,ENE,74,8.0,13.0,63,0.00,,,0.00,,2013-06-19 05:11:00,
2013-06-19 01:23:00,62.0,50.0,30.05,East,83,3.0,8.0,65,0.00,,,0.00,,2013-06-19 05:23:00,
2013-06-19 01:32:00,62.0,50.0,30.05,East,82,3.0,9.0,64,0.00,,,0.00,,2013-06-19 05:32:00,
2013-06-19 01:42:00,62.0,50.0,30.06,NE,54,4.0,7.0,64,0.00,,,0.00,,2013-06-19 05:42:00,
2013-06-19 01:52:00,62.0,50.0,30.06,East,93,4.0,8.0,64,0.00,,,0.00,,2013-06-19 05:52:00,
2013-06-19 02:02:00,62.0,49.0,30.06,East,90,6.0,11.0,63,0.00,,,0.00,,2013-06-19 06:02:00,
2013-06-19 02:11:00,62.0,49.0,30.07,ENE,71,5.0,10.0,63,0.00,,,0.00,,2013-06-19 06:11:00,
2013-06-19 02:22:00,62.0,49.0,30.07,ENE,58,6.0,8.0,62,0.00,,,0.00,,2013-06-19 06:22:00,
2013-06-19 02:34:00,61.0,48.0,30.07,NE,51,9.0,14.0,62,0.00,,,0.00,,2013-06-19 06:34:00,
2013-06-19 02:42:00,61.0,47.0,30.07,East,90,5.0,10.0,61,0.00,,,0.00,,2013-06-19 06:42:00,
2013-06-19 02:52:00,61.0,47.0,30.08,ENE,77,6.0,10.0,61,0.00,,,0.00,,2013-06-19 06:52:00,
2013-06-19 03:01:00,60.0,47.0,30.07,ENE,78,7.0,12.0,61,0.00,,,0.00,,2013-06-19 07:01:00,
2013-06-19 03:11:00,60.0,47.0,30.07,East,83,6.0,10.0,61,0.00,,,0.00,,2013-06-19 07:11:00,
2013-06-19 03:22:00,59.0,46.0,30.08,ENE,66,3.0,8.0,63,0.00,,,0.00,,2013-06-19 07:22:00,
2013-06-19 03:33:00,59.0,47.0,30.08,ESE,107,3.0,8.0,64,0.00,,,0.00,,2013-06-19 07:33:00,
2013-06-19 03:43:00,59.0,47.0,30.08,ENE,67,3.0,7.0,65,0.00,,,0.00,,2013-06-19 07:43:00,
2013-06-19 03:53:00,58.0,46.0,30.08,ENE,75,3.0,7.0,65,0.00,,,0.00,,2013-06-19 07:53:00,
2013-06-19 04:02:00,58.0,46.0,30.08,ENE,64,4.0,8.0,65,0.00,,,0.00,,2013-06-19 08:02:00,
2013-06-19 04:11:00,58.0,46.0,30.08,East,90,4.0,8.0,65,0.00,,,0.00,,2013-06-19 08:11:00,
2013-06-19 04:22:00,58.0,46.0,30.08,ENE,66,5.0,10.0,65,0.00,,,0.00,,2013-06-19 08:22:00,
2013-06-19 04:33:00,58.0,46.0,30.08,East,86,5.0,8.0,65,0.00,,,0.00,,2013-06-19 08:33:00,
2013-06-19 04:43:00,58.0,46.0,30.09,East,96,4.0,9.0,65,0.00,,,0.00,,2013-06-19 08:43:00,
2013-06-19 04:53:00,58.0,46.0,30.09,NE,51,4.0,9.0,65,0.00,,,0.00,,2013-06-19 08:53:00,
2013-06-19 05:02:00,57.0,46.0,30.09,ENE,65,6.0,7.0,66,0.00,,,0.00,,2013-06-19 09:02:00,
2013-06-19 05:11:00,57.0,46.0,30.09,NE,45,4.0,7.0,67,0.00,,,0.00,,2013-06-19 09:11:00,
2013-06-19 05:22:00,57.0,46.0,30.09,ENE,65,4.0,7.0,67,0.00,,,0.00,,2013-06-19 09:22:00,
2013-06-19 05:34:00,57.0,46.0,30.09,ENE,70,3.0,8.0,67,0.00,,,0.00,,2013-06-19 09:34:00,
2013-06-19 05:43:00,57.0,47.0,30.09,ENE,77,1.0,8.0,68,0.00,,,0.00,,2013-06-19 09:43:00,
2013-06-19 05:53:00,56.0,47.0,30.09,East,85,1.0,5.0,71,0.00,,,0.00,,2013-06-19 09:53:00,
2013-06-19 06:02:00,56.0,46.0,30.10,East,96,2.0,7.0,70,0.00,,,0.00,,2013-06-19 10:02:00,
2013-06-19 06:12:00,56.0,46.0,30.11,East,90,3.0,6.0,69,0.00,,,0.00,,2013-06-19 10:12:00,
2013-06-19 06:22:00,56.0,46.0,30.11,ENE,71,3.0,6.0,69,0.00,,,0.00,,2013-06-19 10:22:00,
2013-06-19 06:33:00,56.0,46.0,30.11,ENE,73,4.0,5.0,69,0.00,,,0.00,,2013-06-19 10:33:00,
2013-06-19 06:42:00,56.0,46.0,30.11,ENE,71,4.0,6.0,69,0.00,,,0.00,,2013-06-19 10:42:00,
2013-06-19 06:52:00,56.0,46.0,30.11,East,90,4.0,7.0,69,0.00,,,0.00,,2013-06-19 10:52:00,
2013-06-19 07:02:00,56.0,46.0,30.12,East,85,3.0,7.0,69,0.00,,,0.00,,2013-06-19 11:02:00,
2013-06-19 07:11:00,56.0,46.0,30.12,ESE,111,3.0,5.0,68,0.00,,,0.00,,2013-06-19 11:11:00,
2013-06-19 07:22:00,57.0,47.0,30.13,East,87,2.0,7.0,68,0.00,,,0.00,,2013-06-19 11:22:00,
2013-06-19 07:33:00,57.0,46.0,30.12,ENE,64,3.0,5.0,67,0.00,,,0.00,,2013-06-19 11:33:00,
2013-06-19 07:42:00,57.0,46.0,30.12,ENE,67,3.0,5.0,67,0.00,,,0.00,,2013-06-19 11:42:00,
2013-06-19 07:54:00,58.0,47.0,30.12,ENE,68,3.0,7.0,67,0.00,,,0.00,,2013-06-19 11:54:00,
2013-06-19 08:02:00,58.0,47.0,30.13,East,82,5.0,8.0,66,0.00,,,0.00,,2013-06-19 12:02:00,
2013-06-19 08:12:00,58.0,46.0,30.13,ENE,57,5.0,8.0,65,0.00,,,0.00,,2013-06-19 12:12:00,
2013-06-19 08:22:00,59.0,47.0,30.13,East,101,4.0,7.0,64,0.00,,,0.00,,2013-06-19 12:22:00,
2013-06-19 08:34:00,59.0,47.0,30.13,East,92,5.0,10.0,65,0.00,,,0.00,,2013-06-19 12:34:00,
2013-06-19 08:44:00,60.0,48.0,30.14,ENE,60,3.0,7.0,64,0.00,,,0.00,,2013-06-19 12:44:00,
2013-06-19 08:53:00,60.0,48.0,30.14,East,91,5.0,8.0,64,0.00,,,0.00,,2013-06-19 12:53:00,
2013-06-19 09:02:00,60.0,47.0,30.14,East,88,5.0,8.0,63,0.00,,,0.00,,2013-06-19 13:02:00,
2013-06-19 09:12:00,61.0,48.0,30.14,ENE,69,3.0,7.0,62,0.00,,,0.00,,2013-06-19 13:12:00,
2013-06-19 09:22:00,61.0,48.0,30.15,ESE,105,2.0,9.0,63,0.00,,,0.00,,2013-06-19 13:22:00,
2013-06-19 09:33:00,62.0,48.0,30.15,ESE,117,4.0,7.0,61,0.00,,,0.00,,2013-06-19 13:33:00,
2013-06-19 09:42:00,63.0,49.0,30.15,ENE,69,4.0,6.0,60,0.00,,,0.00,,2013-06-19 13:42:00,
2013-06-19 09:53:00,63.0,48.0,30.15,ESE,112,1.0,7.0,59,0.00,,,0.00,,2013-06-19 13:53:00,
2013-06-19 10:02:00,63.0,49.0,30.15,ESE,115,2.0,5.0,60,0.00,,,0.00,,2013-06-19 14:02:00,
2013-06-19 10:12:00,64.0,50.0,30.16,NNE,22,3.0,5.0,60,0.00,,,0.00,,2013-06-19 14:12:00,
2013-06-19 10:22:00,65.0,50.0,30.16,North,9,3.0,6.0,59,0.00,,,0.00,,2013-06-19 14:22:00,
2013-06-19 10:33:00,65.0,49.0,30.15,ENE,67,3.0,6.0,57,0.00,,,0.00,,2013-06-19 14:33:00,
2013-06-19 10:43:00,65.0,49.0,30.15,SE,138,4.0,7.0,57,0.00,,,0.00,,2013-06-19 14:43:00,
2013-06-19 10:52:00,66.0,50.0,30.15,East,96,2.0,5.0,57,0.00,,,0.00,,2013-06-19 14:52:00,
2013-06-19 11:01:00,67.0,50.0,30.15,East,86,3.0,6.0,55,0.00,,,0.00,,2013-06-19 15:01:00,
2013-06-19 11:11:00,67.0,52.0,30.15,East,96,3.0,5.0,58,0.00,,,0.00,,2013-06-19 15:11:00,
2013-06-19 11:22:00,68.0,51.0,30.15,SE,128,0.0,4.0,55,0.00,,,0.00,,2013-06-19 15:22:00,
2013-06-19 11:33:00,69.0,53.0,30.15,South,186,0.0,3.0,56,0.00,,,0.00,,2013-06-19 15:33:00,
2013-06-19 11:42:00,70.0,53.0,30.15,East,80,1.0,3.0,55,0.00,,,0.00,,2013-06-19 15:42:00,
2013-06-19 11:53:00,70.0,53.0,30.14,SE,128,4.0,7.0,54,0.00,,,0.00,,2013-06-19 15:53:00,
2013-06-19 12:01:00,69.0,52.0,30.14,SE,134,3.0,7.0,55,0.00,,,0.00,,2013-06-19 16:01:00,
2013-06-19 12:11:00,70.0,54.0,30.14,ENE,65,4.0,8.0,56,0.00,,,0.00,,2013-06-19 16:11:00,
2013-06-19 12:22:00,70.0,54.0,30.15,SSE,167,1.0,7.0,57,0.00,,,0.00,,2013-06-19 16:22:00,
2013-06-19 12:34:00,70.0,53.0,30.14,South,170,3.0,7.0,54,0.00,,,0.00,,2013-06-19 16:34:00,
2013-06-19 12:43:00,71.0,51.0,30.15,SE,140,2.0,8.0,50,0.00,,,0.00,,2013-06-19 16:43:00,
2013-06-19 12:52:00,71.0,52.0,30.14,SE,135,1.0,8.0,52,0.00,,,0.00,,2013-06-19 16:52:00,
2013-06-19 13:02:00,71.0,51.0,30.14,South,189,5.0,7.0,49,0.00,,,0.00,,2013-06-19 17:02:00,
2013-06-19 13:12:00,71.0,54.0,30.14,SSE,157,4.0,8.0,54,0.00,,,0.00,,2013-06-19 17:12:00,
2013-06-19 13:22:00,72.0,53.0,30.14,SE,137,4.0,9.0,51,0.00,,,0.00,,2013-06-19 17:22:00,
2013-06-19 13:34:00,72.0,52.0,30.14,East,85,6.0,9.0,49,0.00,,,0.00,,2013-06-19 17:34:00,
2013-06-19 13:43:00,72.0,52.0,30.14,NE,55,1.0,6.0,49,0.00,,,0.00,,2013-06-19 17:43:00,
2013-06-19 13:53:00,72.0,52.0,30.14,South,171,5.0,7.0,49,0.00,,,0.00,,2013-06-19 17:53:00,
2013-06-19 14:02:00,72.0,52.0,30.14,SSE,163,4.0,9.0,50,0.00,,,0.00,,2013-06-19 18:02:00,
2013-06-19 14:12:00,72.0,51.0,30.13,WSW,252,3.0,6.0,48,0.00,,,0.00,,2013-06-19 18:12:00,
2013-06-19 14:24:00,73.0,52.0,30.12,SSW,197,4.0,7.0,47,0.00,,,0.00,,2013-06-19 18:24:00,
2013-06-19 14:33:00,73.0,50.0,30.12,SW,223,3.0,7.0,44,0.00,,,0.00,,2013-06-19 18:33:00,
2013-06-19 14:44:00,73.0,50.0,30.11,SSW,200,4.0,7.0,45,0.00,,,0.00,,2013-06-19 18:44:00,
2013-06-19 14:53:00,73.0,51.0,30.12,SSW,213,2.0,9.0,46,0.00,,,0.00,,2013-06-19 18:53:00,
2013-06-19 15:01:00,74.0,51.0,30.11,South,188,6.0,10.0,45,0.00,,,0.00,,2013-06-19 19:01:00,
2013-06-19 15:12:00,74.0,54.0,30.11,South,179,4.0,10.0,49,0.00,,,0.00,,2013-06-19 19:12:00,
2013-06-19 15:22:00,74.0,52.0,30.12,SW,225,2.0,7.0,46,0.00,,,0.00,,2013-06-19 19:22:00,
2013-06-19 15:32:00,74.0,52.0,30.11,ESE,115,4.0,7.0,46,0.00,,,0.00,,2013-06-19 19:32:00,
2013-06-19 15:43:00,74.0,53.0,30.11,WSW,242,3.0,8.0,48,0.00,,,0.00,,2013-06-19 19:43:00,
2013-06-19 15:52:00,74.0,53.0,30.11,WSW,242,3.0,8.0,48,0.00,,,0.00,,2013-06-19 19:52:00,
2013-06-19 16:02:00,75.0,51.0,30.11,NE,56,2.0,12.0,43,0.00,,,0.00,,2013-06-19 20:02:00,
2013-06-19 16:11:00,74.0,52.0,30.11,SW,231,2.0,9.0,47,0.00,,,0.00,,2013-06-19 20:11:00,
2013-06-19 16:22:00,76.0,52.0,30.11,South,186,4.0,6.0,44,0.00,,,0.00,,2013-06-19 20:22:00,
2013-06-19 16:33:00,76.0,52.0,30.11,SSE,163,5.0,8.0,44,0.00,,,0.00,,2013-06-19 20:33:00,
2013-06-19 16:42:00,75.0,52.0,30.11,SSE,160,3.0,7.0,44,0.00,,,0.00,,2013-06-19 20:42:00,
2013-06-19 16:52:00,75.0,50.0,30.11,SW,217,3.0,6.0,41,0.00,,,0.00,,2013-06-19 20:52:00,
2013-06-19 17:02:00,76.0,52.0,30.10,East,94,1.0,6.0,44,0.00,,,0.00,,2013-06-19 21:02:00,
2013-06-19 17:11:00,77.0,53.0,30.10,SSE,154,1.0,5.0,44,0.00,,,0.00,,2013-06-19 21:11:00,
2013-06-19 17:22:00,76.0,53.0,30.10,SW,231,3.0,8.0,45,0.00,,,0.00,,2013-06-19 21:22:00,
2013-06-19 17:33:00,77.0,52.0,30.09,SSW,192,3.0,5.0,42,0.00,,,0.00,,2013-06-19 21:33:00,
2013-06-19 17:44:00,77.0,53.0,30.09,NNE,16,0.0,6.0,44,0.00,,,0.00,,2013-06-19 21:44:00,
2013-06-19 17:52:00,78.0,54.0,30.09,SSW,209,2.0,4.0,43,0.00,,,0.00,,2013-06-19 21:52:00,
2013-06-19 18:02:00,77.0,52.0,30.09,ESE,121,1.0,6.0,42,0.00,,,0.00,,2013-06-19 22:02:00,
2013-06-19 18:11:00,78.0,53.0,30.09,South,184,4.0,7.0,42,0.00,,,0.00,,2013-06-19 22:11:00,
2013-06-19 18:22:00,76.0,54.0,30.09,SE,124,2.0,5.0,46,0.00,,,0.00,,2013-06-19 22:22:00,
2013-06-19 18:34:00,76.0,54.0,30.08,South,175,2.0,5.0,46,0.00,,,0.00,,2013-06-19 22:34:00,
2013-06-19 18:43:00,76.0,52.0,30.08,West,273,4.0,6.0,44,0.00,,,0.00,,2013-06-19 22:43:00,
2013-06-19 18:53:00,76.0,53.0,30.08,South,186,4.0,7.0,45,0.00,,,0.00,,2013-06-19 22:53:00,
2013-06-19 19:02:00,76.0,54.0,30.08,SSW,196,2.0,7.0,46,0.00,,,0.00,,2013-06-19 23:02:00,
2013-06-19 19:12:00,76.0,54.0,30.08,NW,308,2.0,7.0,47,0.00,,,0.00,,2013-06-19 23:12:00,
2013-06-19 19:23:00,76.0,54.0,30.09,South,187,3.0,7.0,46,0.00,,,0.00,,2013-06-19 23:23:00,
2013-06-19 19:33:00,76.0,54.0,30.09,South,188,1.0,6.0,47,0.00,,,0.00,,2013-06-19 23:33:00,
2013-06-19 19:43:00,76.0,54.0,30.09,SE,136,2.0,5.0,47,0.00,,,0.00,,2013-06-19 23:43:00,
2013-06-19 19:52:00,76.0,54.0,30.09,SSE,157,1.0,5.0,47,0.00,,,0.00,,2013-06-19 23:52:00,
2013-06-19 20:01:00,76.0,54.0,30.10,South,184,1.0,5.0,47,0.00,,,0.00,,2013-06-20 00:01:00,
2013-06-19 20:12:00,76.0,54.0,30.10,SE,134,1.0,5.0,47,0.00,,,0.00,,2013-06-20 00:12:00,
2013-06-19 20:22:00,75.0,54.0,30.10,South,180,2.0,4.0,48,0.00,,,0.00,,2013-06-20 00:22:00,
2013-06-19 20:33:00,75.0,55.0,30.11,SE,125,0.0,2.0,50,0.00,,,0.00,,2013-06-20 00:33:00,
2013-06-19 20:44:00,75.0,56.0,30.11,SE,125,1.0,2.0,51,0.00,,,0.00,,2013-06-20 00:44:00,
2013-06-19 20:52:00,74.0,55.0,30.11,SE,125,0.0,2.0,51,0.00,,,0.00,,2013-06-20 00:52:00,
2013-06-19 21:02:00,74.0,57.0,30.11,SE,125,0.0,0.0,55,0.00,,,0.00,,2013-06-20 01:02:00,
2013-06-19 21:11:00,73.0,57.0,30.11,SE,125,0.0,0.0,57,0.00,,,0.00,,2013-06-20 01:11:00,
2013-06-19 21:22:00,72.0,56.0,30.11,SE,125,0.0,0.0,58,0.00,,,0.00,,2013-06-20 01:22:00,
2013-06-19 21:33:00,72.0,56.0,30.11,SE,125,0.0,0.0,58,0.00,,,0.00,,2013-06-20 01:33:00,
2013-06-19 21:44:00,70.0,56.0,30.11,SE,125,0.0,0.0,62,0.00,,,0.00,,2013-06-20 01:44:00,
2013-06-19 21:52:00,69.0,56.0,30.11,SE,125,0.0,0.0,64,0.00,,,0.00,,2013-06-20 01:52:00,
2013-06-19 22:02:00,69.0,57.0,30.11,SE,125,0.0,0.0,66,0.00,,,0.00,,2013-06-20 02:02:00,
2013-06-19 22:11:00,68.0,57.0,30.12,SE,125,0.0,0.0,69,0.00,,,0.00,,2013-06-20 02:11:00,
2013-06-19 22:24:00,67.0,58.0,30.12,SE,125,0.0,0.0,72,0.00,,,0.00,,2013-06-20 02:24:00,
2013-06-19 22:34:00,67.0,58.0,30.12,SE,125,0.0,0.0,74,0.00,,,0.00,,2013-06-20 02:34:00,
2013-06-19 22:43:00,66.0,58.0,30.12,SE,125,0.0,1.0,76,0.00,,,0.00,,2013-06-20 02:43:00,
2013-06-19 22:52:00,65.0,58.0,30.13,SE,125,0.0,0.0,77,0.00,,,0.00,,2013-06-20 02:52:00,
2013-06-19 23:02:00,65.0,58.0,30.13,SE,125,0.0,0.0,79,0.00,,,0.00,,2013-06-20 03:02:00,
2013-06-19 23:11:00,64.0,59.0,30.14,SE,125,0.0,0.0,83,0.00,,,0.00,,2013-06-20 03:11:00,
2013-06-19 23:22:00,64.0,57.0,30.14,SE,125,0.0,0.0,79,0.00,,,0.00,,2013-06-20 03:22:00,
2013-06-19 23:33:00,64.0,58.0,30.13,SE,125,0.0,0.0,81,0.00,,,0.00,,2013-06-20 03:33:00,
2013-06-19 23:43:00,63.0,58.0,30.13,SE,125,0.0,1.0,83,0.00,,,0.00,,2013-06-20 03:43:00,
2013-06-19 23:53:00,62.0,57.0,30.12,SE,125,0.0,1.0,85,0.00,,,0.00,,2013-06-20 03:53:00,